Regional Weather Roundup
Issued by NWS

Home | Current Version | Previous Version | Graphics & Text | Print | Product List | Glossary On
Versions: 1 2 3 4 5 6 7 8 9 10 11 12 13 14 15 16 17 18 19 20 21 22 23 24 25 26 27 28 29 30 31 32 33 34 35 36 37 38 39 40 41 42 43 44 45 46 47 48 49 50
000
ASUS43 KIND 242359
RWRIN

WEATHER ROUNDUP FOR INDIANA
NATIONAL WEATHER SERVICE INDIANAPOLIS IN
800 PM EDT SUN JUL 24 2016

NOTE: "FAIR" INDICATES FEW OR NO CLOUDS BELOW 12,000 FEET WITH NO
SIGNIFICANT WEATHER AND/OR OBSTRUCTIONS TO VISIBILITY.

* - STATION DOES NOT REPORT WEATHER SUCH AS PRECIPITATION OR FOG.

+ - STATION NOT QUALITY CONTROLLED BY THE NATIONAL WEATHER SERVICE.
    USE DATA WITH CAUTION...ESPECIALLY DEWPOINT AND RELATIVE
    HUMIDITY OBSERVATIONS.

INZ001>003-010>013-019-020-250100-
NORTHWEST INDIANA

CITY           SKY/WX    TMP DP  RH WIND       PRES   REMARKS
GARY /AIRPORT/ PTSUNNY   90 N/A N/A SW8       29.87F
KNOX *+        SUNNY     86  70  58 S9        29.88F
MONTICELLO +   SUNNY     88  73  61 S7        29.90F HX  96
6HR MIN TEMP:  88; 6HR MAX TEMP:  92;


$$

LMZ046-743>745-250100-
SOUTHERN LAKE MICHIGAN

STATION/POSITION TIME  TEMP    WIND        PRES    WAVE
                       AIR SEA DIR/SP/G            HT
                 (UTC) (F)     (DEG/KT/KT) (MB)    (FT)
BURNS HARBOR     2320   87     200/ 16/ 23 1011.2F
MICHIGAN CITY    2300   87     180/ 15/ 17   N/A
5NW MICH CITY    2300   83 74  210/ 12/ 16   N/A     2

$$

INZ004-005-014>016-021>024-250100-
NORTH CENTRAL INDIANA

CITY           SKY/WX    TMP DP  RH WIND       PRES   REMARKS
GOSHEN         SUNNY     88  76  67 SW10      29.89F HX  99
6HR MIN TEMP:  85; 6HR MAX TEMP:  91;

SOUTH BEND     CLOUDY    86  77  74 SW8       29.89F HX  97
6HR MIN TEMP:  85; 6HR MAX TEMP:  89;


$$

INZ006>009-017-018-025>027-250100-
NORTHEAST INDIANA

CITY           SKY/WX    TMP DP  RH WIND       PRES   REMARKS
ANGOLA *+        N/A     88  82  84 SW7       29.92F HX 108
FORT WAYNE     CLOUDY    89  75  63 SW8       29.92F HX  99
6HR MIN TEMP:  88; 6HR MAX TEMP:  91;


$$

INZ028-029-035-036-043>045-051>053-250100-
WEST CENTRAL INDIANA

CITY           SKY/WX    TMP DP  RH WIND       PRES   REMARKS
CRAWFORDSVL +  MOSUNNY   84  78  82 S6        29.94S HX  95
6HR MIN TEMP:  84; 6HR MAX TEMP:  88;

LAFAYETTE      SUNNY     87  79  76 S6        29.90F HX 101
6HR MIN TEMP:  87; 6HR MAX TEMP:  91;

TERRE HAUTE    MOSUNNY   88  76  67 S8        29.93F HX  99
6HR MIN TEMP:  88; 6HR MAX TEMP:  92;


$$

INZ030>032-037>040-046>048-054>057-064-065-250100-
CENTRAL INDIANA

CITY           SKY/WX    TMP DP  RH WIND       PRES   REMARKS
INDIANAPOLIS   PTSUNNY   87  76  69 SW10      29.95F HX  97
6HR MIN TEMP:  87; 6HR MAX TEMP:  92;

-EAGLE CREEK   MOSUNNY   89  74  60 SW7       29.94F HX  98
6HR MIN TEMP:  89; 6HR MAX TEMP:  93;

KOKOMO *+      MOSUNNY   90  73  58 SW12      29.92F HX  98
6HR MIN TEMP:  90; 6HR MAX TEMP:  93;

SHELBYVILLE    SUNNY     87  76  69 SW7       29.95S HX  97
6HR MIN TEMP:  87; 6HR MAX TEMP:  93;


$$

INZ033-034-041-042-049-050-058-059-250100-
EAST CENTRAL INDIANA

CITY           SKY/WX    TMP DP  RH WIND       PRES   REMARKS
MUNCIE         SUNNY     90  75  61 SW9       29.95S HX 100
6HR MIN TEMP:  89; 6HR MAX TEMP:  94;


$$

INZ060-061-067>069-081>083-085>088-250100-
SOUTHWEST INDIANA

CITY           SKY/WX    TMP DP  RH WIND       PRES   REMARKS
EVANSVILLE     MOSUNNY   89  75  63 SW6       29.95S HX  99
6HR MIN TEMP:  89; 6HR MAX TEMP:  92;

HUNTINGBURG *+ SUNNY     90  77  66 S3        29.96S HX 102
6HR MIN TEMP:  90; 6HR MAX TEMP:  91;


$$

INZ062-063-066-070>080-084-089>092-250100-
SOUTH CENTRAL AND SOUTHEAST INDIANA

CITY           SKY/WX    TMP DP  RH WIND       PRES   REMARKS
BLOOMINGTON    SUNNY     86  76  71 SW6       29.97S HX  96
6HR MIN TEMP:  86; 6HR MAX TEMP:  91;

MADISON *+     CLEAR     88  73  62 S5        30.00R HX  96

$$




USA.gov is the U.S. government's official web portal to all federal, state and local government web resources and services.